K5WRW-WX Weather Reports


Display with metric or nautical units.
time (UTC)temp
F
wind
direction
speed
MPH
gust
MPH
rain 1hr
in
rain 24hr
in
rain mn
in
humidity
%
barometer
mb
20260510041117 73 0 4.0 6.0 0.00 0.00 0.00 76 1008.1
20260510040117 74 0 5.0 7.0 0.00 0.00 0.00 76 1008.0
20260510035116 74 0 3.0 5.0 0.00 0.00 0.00 75 1008.0
20260510034116 74 0 4.0 7.0 0.00 0.00 0.00 74 1007.7
20260510033117 75 0 6.0 7.0 0.00 0.00 0.00 74 1007.8
20260510032117 75 0 5.0 7.0 0.00 0.00 0.00 73 1008.0
20260510031157 76 0 5.0 7.0 0.00 0.00 0.00 72 1008.0
20260510030116 76 0 5.0 7.0 0.00 0.00 0.00 71 1007.9
20260510025116 76 0 6.0 10.0 0.00 0.00 0.00 71 1007.8
20260510024116 76 0 7.0 9.0 0.00 0.00 0.00 70 1007.7
20260510023117 77 0 5.0 8.0 0.00 0.00 0.00 69 1007.8
20260510022116 77 0 7.0 9.0 0.00 0.00 0.00 67 1007.6
20260510021157 78 0 8.0 10.0 0.00 0.00 0.00 65 1007.8
20260510020136 79 0 7.0 10.0 0.00 0.00 0.00 62 1007.7
20260510015136 79 0 6.0 9.0 0.00 0.00 0.00 62 1007.6
20260510014116 79 0.0 1.0 0.00 0.00 0.00 62 1007.7
20260510013116 80 0 1.0 4.0 0.00 0.00 0.00 62 1007.6
20260510012136 80 0 1.0 2.0 0.00 0.00 0.00 62 1007.7
20260510011116 81 0 3.0 5.0 0.00 0.00 0.00 61 1007.5
20260510010116 81 0 3.0 5.0 0.00 0.00 0.00 61 1007.4
20260510005116 81 0 3.0 5.0 0.00 0.00 0.00 61 1007.3
20260510004116 82 0 2.0 6.0 0.00 0.00 0.00 61 1007.3
20260510003116 82 0 3.0 7.0 0.00 0.00 0.00 60 1007.3
20260510002116 82 0 7.0 9.0 0.00 0.00 0.00 60 1007.2
20260510001156 83 0 7.0 9.0 0.00 0.00 0.00 60 1007.1
20260510000116 83 0 5.0 9.0 0.00 0.00 0.00 61 1007.0
20260509235116 83 0 9.0 13.0 0.00 0.00 0.00 60 1007.0
20260509234116 83 0 3.0 6.0 0.00 0.00 0.00 60 1007.1
20260509233116 84 0 6.0 10.0 0.00 0.00 0.00 60 1007.2
20260509232116 85 0 7.0 10.0 0.00 0.00 0.00 57 1007.2
20260509231116 84 90 6.0 7.0 0.00 0.00 0.00 58 1007.3
20260509230116 85 0 7.0 10.0 0.00 0.00 0.00 59 1007.4
20260509225116 86 0 6.0 11.0 0.00 0.00 0.00 58 1007.5
20260509224116 85 90 6.0 10.0 0.00 0.00 0.00 56 1007.4
20260509223116 86 0 6.0 8.0 0.00 0.00 0.00 56 1007.4
20260509222116 86 0 4.0 5.0 0.00 0.00 0.00 53 1007.4
20260509221116 86 68 4.0 6.0 0.00 0.00 0.00 54 1007.3
20260509220116 86 45 2.0 5.0 0.00 0.00 0.00 53 1007.3
20260509215116 86 0 4.0 7.0 0.00 0.00 0.00 54 1007.2
20260509214116 86 0 4.0 7.0 0.00 0.00 0.00 53 1007.3
20260509213116 86 90 7.0 10.0 0.00 0.00 0.00 53 1007.4
20260509212116 85 68 7.0 10.0 0.00 0.00 0.00 55 1007.5
20260509211116 85 90 7.0 10.0 0.00 0.00 0.00 55 1007.6
20260509210115 86 0 4.0 7.0 0.00 0.00 0.00 54 1007.8
20260509205116 86 0 4.0 9.0 0.00 0.00 0.00 53 1007.9
20260509204115 85 90 3.0 5.0 0.00 0.00 0.00 55 1008.0
20260509203115 85 45 6.0 9.0 0.00 0.00 0.00 54 1008.1
20260509202116 85 90 6.0 8.0 0.00 0.00 0.00 56 1008.3
20260509201115 85 0 4.0 8.0 0.00 0.00 0.00 55 1008.3
20260509200115 85 68 6.0 9.0 0.00 0.00 0.00 56 1008.4
20260509195115 84 90 7.0 10.0 0.00 0.00 0.00 58 1008.5
20260509194115 84 68 2.0 5.0 0.00 0.00 0.00 57 1008.6
20260509193115 85 0 3.0 6.0 0.00 0.00 0.00 57 1008.8
20260509192115 85 338 4.0 6.0 0.00 0.00 0.00 59 1008.9
20260509191136 84 68 3.0 6.0 0.00 0.00 0.00 57 1008.9
20260509190116 84 0 4.0 9.0 0.00 0.00 0.00 60 1009.0
20260509185115 83 0.0 1.0 0.00 0.00 0.00 60 1009.1
20260509184115 83 90 5.0 7.0 0.00 0.00 0.00 62 1009.2
20260509183115 83 0 3.0 5.0 0.00 0.00 0.00 65 1009.2
20260509182115 82 68 5.0 7.0 0.00 0.00 0.00 67 1009.3
20260509181115 81 90 4.0 8.0 0.00 0.00 0.00 66 1009.4
20260509180116 81 90 7.0 10.0 0.00 0.00 0.00 67 1009.5
20260509175115 82 90 8.0 11.0 0.00 0.00 0.00 66 1009.6
20260509174115 82 45 4.0 6.0 0.00 0.00 0.00 68 1009.6
20260509173117 81 90 6.0 9.0 0.00 0.00 0.00 67 1009.7
20260509172117 80 23 5.0 7.0 0.00 0.00 0.00 71 1009.8
20260509171117 80 0 2.0 5.0 0.00 0.00 0.00 71 1009.9
20260509170138 80 68 6.0 8.0 0.00 0.00 0.00 71 1009.9
20260509165117 79 68 6.0 10.0 0.00 0.00 0.00 73 1009.9
20260509164117 79 23 2.0 6.0 0.00 0.00 0.00 74 1010.0
20260509163117 78 338 2.0 5.0 0.00 0.00 0.00 76 1009.9
20260509162137 78 0 2.0 5.0 0.00 0.00 0.00 77 1009.9
20260509161117 77 90 4.0 6.0 0.00 0.00 0.00 79 1010.0
20260509160117 76 23 8.0 10.0 0.00 0.00 0.00 81 1010.0
20260509155117 75 338 3.0 7.0 0.00 0.00 0.00 81 1009.9
20260509154117 75 315 7.0 9.0 0.00 0.00 0.00 81 1009.8
20260509153117 75 315 4.0 5.0 0.00 0.00 0.00 80 1009.9
20260509152117 75 0 5.0 8.0 0.00 0.00 0.00 80 1009.8
20260509151117 75 315 2.0 4.0 0.00 0.00 0.00 81 1009.7
20260509150117 74 293 4.0 7.0 0.00 0.00 0.00 82 1009.8
20260509145117 74 315 3.0 7.0 0.00 0.00 0.00 83 1009.9
20260509144137 74 0 3.0 6.0 0.00 0.00 0.00 84 1009.9
20260509143117 73 0 3.0 6.0 0.00 0.00 0.00 85 1010.0
20260509142117 73 338 1.0 4.0 0.00 0.00 0.00 86 1010.1
20260509141157 72 23 1.0 2.0 0.00 0.00 0.00 88 1009.9
20260509140117 71 0.0 1.0 0.00 0.00 0.00 89 1009.9
20260509135117 70 315 1.0 2.0 0.00 0.00 0.00 90 1010.0
20260509134117 70 338 2.0 2.0 0.00 0.00 0.00 91 1009.9
20260509133117 69 203 1.0 2.0 0.00 0.00 0.00 91 1010.0
20260509132116 69 0.0 2.0 0.00 0.00 0.00 91 1009.9
20260509131117 68 158 1.0 2.0 0.00 0.00 0.00 91 1009.8
20260509130116 68 0.0 0.0 0.00 0.00 0.00 92 1009.7
20260509125116 68 135 1.0 2.0 0.00 0.00 0.00 91 1009.8
20260509124117 67 0.0 1.0 0.00 0.00 0.00 91 1009.7
20260509123136 67 135 2.0 2.0 0.00 0.00 0.00 91 1009.4
20260509122116 67 0 3.0 5.0 0.00 0.00 0.00 92 1009.3
20260509121116 67 0.0 1.0 0.00 0.00 0.00 91 1009.2
20260509120116 67 135 2.0 3.0 0.00 0.00 0.00 91 1009.1
20260509115116 67 113 2.0 4.0 0.00 0.00 0.00 91 1009.0
20260509114116 66 0.0 0.0 0.00 0.00 0.00 91 1009.0
20260509113116 67 0.0 1.0 0.00 0.00 0.00 90 1008.8
20260509112116 67 135 2.0 4.0 0.00 0.00 0.00 90 1008.7
20260509111136 67 135 2.0 4.0 0.00 0.00 0.00 90 1008.7
20260509110116 67 0 1.0 2.0 0.00 0.00 0.00 90 1008.6
20260509105136 67 135 1.0 1.0 0.00 0.00 0.00 90 1008.4
20260509104136 67 0.0 1.0 0.00 0.00 0.00 89 1008.4
20260509103116 67 135 1.0 1.0 0.00 0.00 0.00 89 1008.3
20260509102116 67 113 1.0 2.0 0.00 0.00 0.00 89 1008.1
20260509101116 67 90 1.0 2.0 0.00 0.00 0.00 88 1008.1
20260509100116 67 90 1.0 3.0 0.00 0.00 0.00 89 1007.9
20260509095116 68 90 3.0 4.0 0.00 0.00 0.00 88 1008.1
20260509094116 68 90 4.0 6.0 0.00 0.00 0.00 88 1008.0
20260509093116 68 90 3.0 6.0 0.00 0.00 0.00 88 1008.0
20260509092116 68 68 3.0 5.0 0.00 0.00 0.00 88 1008.1
20260509091116 68 90 4.0 7.0 0.00 0.00 0.00 88 1008.1
20260509090116 68 23 3.0 4.0 0.00 0.00 0.00 88 1008.2
20260509085116 68 90 3.0 5.0 0.00 0.00 0.00 87 1008.2
20260509084116 68 0 3.0 5.0 0.00 0.00 0.00 87 1008.2
20260509083116 68 68 3.0 5.0 0.00 0.00 0.00 87 1008.1
20260509082116 68 68 5.0 6.0 0.00 0.00 0.00 87 1008.2
20260509081116 68 0 3.0 5.0 0.00 0.00 0.00 87 1008.3
20260509080116 68 0 2.0 4.0 0.00 0.00 0.00 87 1008.5
20260509075116 68 0 3.0 5.0 0.00 0.00 0.00 86 1008.7
20260509074116 68 0 5.0 7.0 0.00 0.00 0.00 86 1008.6
20260509073116 68 113 2.0 3.0 0.00 0.00 0.00 86 1008.8
20260509072116 68 90 3.0 5.0 0.00 0.00 0.00 85 1008.8
20260509071116 69 0 3.0 4.0 0.00 0.00 0.00 85 1008.7
20260509070116 69 0 7.0 9.0 0.00 0.00 0.00 84 1008.9
20260509065116 69 0 5.0 7.0 0.00 0.00 0.00 84 1009.1
20260509064116 69 0 3.0 5.0 0.00 0.00 0.00 83 1009.4
20260509063116 70 0 4.0 14.0 0.00 0.00 0.00 83 1009.3
20260509062116 70 0 5.0 7.0 0.00 0.00 0.00 83 1009.3
20260509061116 70 0 4.0 6.0 0.00 0.00 0.00 83 1009.4
20260509060116 70 135 2.0 5.0 0.00 0.00 0.00 83 1009.6
20260509055115 70 90 3.0 4.0 0.00 0.00 0.00 82 1010.0
20260509054115 70 0 3.0 5.0 0.00 0.00 0.00 82 1010.1
20260509053115 70 68 5.0 7.0 0.00 0.00 0.00 82 1009.9
20260509052116 70 90 5.0 6.0 0.00 0.00 0.00 81 1009.5
20260509051115 70 90 2.0 5.0 0.00 0.00 0.00 81 1009.5
20260509050115 70 90 5.0 6.0 0.00 0.00 0.00 81 1009.5
20260509045137 70 90 3.0 4.0 0.00 0.00 0.00 81 1009.2
20260509044117 70 0 5.0 7.0 0.00 0.00 0.00 80 1008.6
20260509043137 70 0 4.0 6.0 0.00 0.00 0.00 80 1008.5
20260509042137 70 0 4.0 5.0 0.00 0.00 0.00 80 1008.9